Location: Newark
(44.1667°N, 8.2500°E)
Time: 11:20:31
(UTC+00:00)

Vanguard 2 - Pass Details

Date: 11 December 2019
Orbit: 553 x 2938 km, 32.9° (Epoch: 18 January)

Event Time Altitude Azimuth Distance (km) Brightness Sun altitude
Exits shadow 06:11:20 - 274° (W) 6,439 11.6 -7.2°
Reaches altitude 10° 06:14:45 10° 269° (W) 5,760 11.4 -6.6°
Maximum altitude 06:29:20 35° 213° (SSW) 3,632 10.9 -4.3°
Drops below altitude 10° 06:40:40 10° 154° (SSE) 4,456 12.4 -2.5°
Sets 06:44:05 0° 145° (SE) 5,135 13.2 -2.0°
